Regional Weather Roundup
Issued by NWS Cleveland, OH

Home | Current Version | Previous Version | Text Only | Print | Product List | Glossary Off
Versions: 1 2 3 4 5 6 7 8 9 10 11 12 13 14 15 16 17 18 19 20 21 22 23 24 25 26 27 28 29 30 31 32 33 34 35 36 37 38 39 40 41 42 43 44 45 46 47 48 49 50

000
ASUS41 KCLE 292010
RWRCLE
OHIO REGIONAL WEATHER ROUNDUP
NATIONAL WEATHER SERVICE CLEVELAND, OH
400 PM EDT FRI JUL 29 2016

NOTE: "FAIR" INDICATES FEW OR NO CLOUDS BELOW 12,000 FEET WITH NO
SIGNIFICANT WEATHER AND/OR OBSTRUCTIONS TO VISIBILITY.

OHZ001>008-015>018-024>027-034-035-043-044-292100-
   NORTHWEST OHIO

CITY           SKY/WX    TMP DP  RH WIND       PRES   REMARKS
DEFIANCE       PTSUNNY   76  66  71 N13       29.91S
FINDLAY        PTSUNNY   88  62  41 CALM      29.89F
TOLEDO EXPRESS CLOUDY    83  68  60 N13       29.90F
TOLEDO EXEC    LGT RAIN  83  66  56 NE9       29.92S
LIMA           PTSUNNY   80  73  79 NE6       29.91F THUNDER
$$

OHZ009>014-019>023-028>033-038-089-292100-
   NORTHEAST OHIO

CITY           SKY/WX    TMP DP  RH WIND       PRES   REMARKS
CLE-HOPKINS    CLOUDY    81  64  56 SE9       29.95F
CLE-LAKEFRONT  CLOUDY    83  64  52 N5        29.92F
CUY CO. ARPT   PTSUNNY   82  68  61 VRB3      29.94F
LORAIN-ELYRIA  MOSUNNY   83  69  62 NE9       29.93F
ASHTABULA      LGT RAIN  75  72  90 S10       29.98R
AKRON-CANTON   PTSUNNY   86  58  38 CALM      29.92F
WOOSTER        MOSUNNY   83  65  54 MISG      29.93F
MANSFIELD      CLOUDY    83  62  49 S10       29.93F
YOUNGSTOWN     TSTM      70  66  87 N7        29.95S FOG
$$

OHZ042-051>053-060>062-070>072-077>081-292100-
  SOUTHWEST OHIO

CITY           SKY/WX    TMP DP  RH WIND       PRES   REMARKS
CINC-COVINGTON PTSUNNY   86  71  60 S8        29.90F HX  91
CINC-LUNKEN    MOSUNNY   85  73  67 S8        29.88F HX  91
HAMILTON       MOSUNNY   89  69  51 W8        29.89F HX  93
DAYTON         PTSUNNY   84  68  58 E12       29.90F
WRIGHT-PAT AFB TSTM      75  72  91 E12       29.92R VSB 1
DAYTON GENERAL PTSUNNY   84  69  60 S6        29.89F
WILMINGTON     MOSUNNY   83  72  69 VRB6      29.92F
$$

OHZ036-037-039>041-045>050-054>059-063>069-073>076-082>088-292100-
  CENTRAL AND SOUTHEAST OHIO

CITY           SKY/WX    TMP DP  RH WIND       PRES   REMARKS
COLUMBUS       LGT RAIN  75  72  90 SW9       29.91F
OSU AIRPORT    CLOUDY    74  70  87 S8        29.91F
BOLTON FIELD   NOT AVBL
RICKENBACK AFB CLOUDY    76  68  76 SW6       29.93F
NEWARK         SUNNY     83  70  64 VRB3      29.91F
MARION         CLOUDY    80  65  59 NW14G24   29.93S
LANCASTER      LGT RAIN  76  72  87 SW6       29.93F
ZANESVILLE     SUNNY     87  66  49 VRB3      29.93F
NEW PHILLY     SUNNY     86  66  51 S9        29.92F
$$




USA.gov is the U.S. government's official web portal to all federal, state and local government web resources and services.